Year,Month,Day,Hour,Minute,Value (Times are PST for temperature in C)
2007,10,28,00,00,5.80
2007,10,28,00,01,5.80
2007,10,28,00,02,5.80
2007,10,28,00,03,5.80
2007,10,28,00,04,5.80
2007,10,28,00,05,5.80
2007,10,28,00,06,5.80
2007,10,28,00,07,5.70
2007,10,28,00,08,5.70
2007,10,28,00,09,5.70
2007,10,28,00,10,5.70
2007,10,28,00,11,5.60
2007,10,28,00,12,5.60
2007,10,28,00,13,5.60
2007,10,28,00,14,5.50
2007,10,28,00,15,5.50
2007,10,28,00,16,5.40
2007,10,28,00,17,5.40
2007,10,28,00,18,5.40
2007,10,28,00,19,5.40
2007,10,28,00,20,5.40
2007,10,28,00,21,5.40
2007,10,28,00,22,5.30
2007,10,28,00,23,5.30
2007,10,28,00,24,5.30
2007,10,28,00,25,5.30
2007,10,28,00,26,5.30
2007,10,28,00,27,5.30
2007,10,28,00,28,5.30
2007,10,28,00,29,5.30
2007,10,28,00,30,5.30
2007,10,28,00,31,5.30
2007,10,28,00,32,5.20
2007,10,28,00,33,5.20
2007,10,28,00,34,5.20
2007,10,28,00,35,5.10
2007,10,28,00,36,5.10
2007,10,28,00,37,5.10
2007,10,28,00,38,5.10
2007,10,28,00,39,5.10
2007,10,28,00,40,5.10
2007,10,28,00,41,5.10
2007,10,28,00,42,5.10
2007,10,28,00,43,5.10
2007,10,28,00,44,5.00
2007,10,28,00,45,5.00
2007,10,28,00,46,5.00
2007,10,28,00,47,5.00
2007,10,28,00,48,5.00
2007,10,28,00,49,5.00
2007,10,28,00,50,5.00
2007,10,28,00,51,5.00
2007,10,28,00,52,5.00
2007,10,28,00,53,5.00
2007,10,28,00,54,5.00
2007,10,28,00,55,4.90
2007,10,28,00,56,4.90
2007,10,28,00,57,4.90
2007,10,28,00,58,4.90
2007,10,28,00,59,4.90
2007,10,28,02,00,4.90
2007,10,28,02,01,4.90
2007,10,28,02,02,4.90
2007,10,28,02,03,4.90
2007,10,28,02,04,4.90
2007,10,28,02,05,4.90
2007,10,28,02,06,4.90
2007,10,28,02,07,4.90
2007,10,28,02,08,4.90
2007,10,28,02,09,4.90
2007,10,28,02,10,4.90
2007,10,28,02,11,4.90
2007,10,28,02,12,4.90
2007,10,28,02,13,4.90
2007,10,28,02,14,4.90
2007,10,28,02,15,4.90
2007,10,28,02,16,4.90
2007,10,28,02,17,4.80
2007,10,28,02,18,4.80
2007,10,28,02,19,4.80
2007,10,28,02,20,4.80
2007,10,28,02,21,4.80
2007,10,28,02,22,4.80
2007,10,28,02,23,4.70
2007,10,28,02,24,4.70
2007,10,28,02,25,4.70
2007,10,28,02,26,4.70
2007,10,28,02,27,4.60
2007,10,28,02,28,4.60
2007,10,28,02,29,4.60
2007,10,28,02,30,4.50
2007,10,28,02,31,4.50
2007,10,28,02,32,4.50
2007,10,28,02,33,4.50
2007,10,28,02,34,4.40
2007,10,28,02,35,4.40
2007,10,28,02,36,4.40
2007,10,28,02,37,4.40
2007,10,28,02,38,4.40
2007,10,28,02,39,4.50
2007,10,28,02,40,4.40
2007,10,28,02,41,4.50
2007,10,28,02,42,4.40
2007,10,28,02,43,4.50
2007,10,28,02,44,4.50
2007,10,28,02,45,4.40
2007,10,28,02,46,4.40
2007,10,28,02,47,4.40
2007,10,28,02,48,4.40
2007,10,28,02,49,4.40
2007,10,28,02,50,4.50
2007,10,28,02,51,4.50
2007,10,28,02,52,4.50
2007,10,28,02,53,4.60
2007,10,28,02,54,4.60
2007,10,28,02,55,4.60
2007,10,28,02,56,4.70
2007,10,28,02,57,4.70
2007,10,28,02,58,4.70
2007,10,28,02,59,4.70
2007,10,28,03,02,4.80
2007,10,28,03,03,4.70
2007,10,28,03,04,4.70
2007,10,28,03,05,4.70
2007,10,28,03,06,4.70
2007,10,28,03,07,4.70
2007,10,28,03,08,4.70
2007,10,28,03,09,4.70
2007,10,28,03,10,4.70
2007,10,28,03,11,4.80
2007,10,28,03,12,4.80
2007,10,28,03,13,4.80
2007,10,28,03,14,4.80
2007,10,28,03,15,4.90
2007,10,28,03,16,4.90
2007,10,28,03,17,4.90
2007,10,28,03,18,5.00
2007,10,28,03,19,5.00
2007,10,28,03,20,5.00
2007,10,28,03,21,5.10
2007,10,28,03,22,5.10
2007,10,28,03,23,5.10
2007,10,28,03,24,5.10
2007,10,28,03,25,5.10
2007,10,28,03,26,5.10
2007,10,28,03,27,5.10
2007,10,28,03,28,5.00
2007,10,28,03,29,5.00
2007,10,28,03,30,4.90
2007,10,28,03,31,4.90
2007,10,28,03,32,4.90
2007,10,28,03,33,4.90
2007,10,28,03,34,4.90
2007,10,28,03,35,4.90
2007,10,28,03,36,4.90
2007,10,28,03,37,5.00
2007,10,28,03,38,5.00
2007,10,28,03,39,5.00
2007,10,28,03,40,5.10
2007,10,28,03,41,5.10
2007,10,28,03,42,5.10
2007,10,28,03,43,5.10
2007,10,28,03,44,5.10
2007,10,28,03,45,5.20
2007,10,28,03,46,5.20
2007,10,28,03,47,5.30
2007,10,28,03,48,5.30
2007,10,28,03,49,5.30
2007,10,28,03,50,5.40
2007,10,28,03,51,5.40
2007,10,28,03,52,5.40
2007,10,28,03,53,5.40
2007,10,28,03,54,5.40
2007,10,28,03,55,5.40
2007,10,28,03,56,5.40
2007,10,28,03,57,5.40
2007,10,28,03,58,5.40
2007,10,28,03,59,5.50
2007,10,28,04,00,5.50
2007,10,28,04,01,5.50
2007,10,28,04,02,5.50
2007,10,28,04,03,5.60
2007,10,28,04,04,5.60
2007,10,28,04,05,5.60
2007,10,28,04,06,5.60
2007,10,28,04,07,5.60
2007,10,28,04,08,5.60
2007,10,28,04,09,5.60
2007,10,28,04,10,5.60
2007,10,28,04,11,5.60
2007,10,28,04,12,5.60
2007,10,28,04,13,5.60
2007,10,28,04,14,5.60
2007,10,28,04,15,5.60
2007,10,28,04,16,5.60
2007,10,28,04,17,5.60
2007,10,28,04,18,5.60
2007,10,28,04,19,5.60
2007,10,28,04,20,5.60
2007,10,28,04,21,5.60
2007,10,28,04,22,5.60
2007,10,28,04,23,5.60
2007,10,28,04,24,5.60
2007,10,28,04,25,5.60
2007,10,28,04,26,5.60
2007,10,28,04,27,5.60
2007,10,28,04,28,5.60
2007,10,28,04,29,5.70
2007,10,28,04,30,5.70
2007,10,28,04,31,5.70
2007,10,28,04,32,5.70
2007,10,28,04,33,5.70
2007,10,28,04,34,5.70
2007,10,28,04,35,5.70
2007,10,28,04,36,5.70
2007,10,28,04,37,5.70
2007,10,28,04,38,5.70
2007,10,28,04,39,5.70
2007,10,28,04,40,5.70
2007,10,28,04,41,5.70
2007,10,28,04,42,5.70
2007,10,28,04,43,5.70
2007,10,28,04,44,5.70
2007,10,28,04,45,5.70
2007,10,28,04,46,5.70
2007,10,28,04,47,5.70
2007,10,28,04,48,5.70
2007,10,28,04,49,5.70
2007,10,28,04,50,5.70
2007,10,28,04,51,5.70
2007,10,28,04,52,5.70
2007,10,28,04,53,5.70
2007,10,28,04,54,5.60
2007,10,28,04,55,5.60
2007,10,28,04,56,5.60
2007,10,28,04,57,5.60
2007,10,28,04,58,5.60
2007,10,28,04,59,5.70
2007,10,28,05,00,5.70
2007,10,28,05,01,5.70
2007,10,28,05,02,5.70
2007,10,28,05,03,5.70
2007,10,28,05,04,5.70
2007,10,28,05,05,5.80
2007,10,28,05,06,5.80
2007,10,28,05,07,5.80
2007,10,28,05,08,5.80
2007,10,28,05,09,5.80
2007,10,28,05,10,5.80
2007,10,28,05,11,5.90
2007,10,28,05,12,5.90
2007,10,28,05,13,5.90
2007,10,28,05,14,5.90
2007,10,28,05,15,5.90
2007,10,28,05,16,5.90
2007,10,28,05,17,5.90
2007,10,28,05,18,6.00
2007,10,28,05,19,6.00
2007,10,28,05,20,6.00
2007,10,28,05,21,6.00
2007,10,28,05,22,6.00
2007,10,28,05,23,6.10
2007,10,28,05,24,6.10
2007,10,28,05,25,6.10
2007,10,28,05,26,6.10
2007,10,28,05,27,6.10
2007,10,28,05,28,6.10
2007,10,28,05,29,6.20
2007,10,28,05,30,6.20
2007,10,28,05,31,6.20
2007,10,28,05,32,6.20
2007,10,28,05,33,6.20
2007,10,28,05,34,6.20
2007,10,28,05,35,6.20
2007,10,28,05,36,6.20
2007,10,28,05,37,6.20
2007,10,28,05,38,6.20
2007,10,28,05,39,6.20
2007,10,28,05,40,6.20
2007,10,28,05,41,6.10
2007,10,28,05,42,6.10
2007,10,28,05,43,6.10
2007,10,28,05,44,6.10
2007,10,28,05,45,6.10
2007,10,28,05,46,6.10
2007,10,28,05,47,6.10
2007,10,28,05,48,6.10
2007,10,28,05,49,6.10
2007,10,28,05,50,6.10
2007,10,28,05,51,6.10
2007,10,28,05,52,6.10
2007,10,28,05,53,6.10
2007,10,28,05,54,6.20
2007,10,28,05,55,6.20
2007,10,28,05,56,6.20
2007,10,28,05,57,6.20
2007,10,28,05,58,6.20
2007,10,28,05,59,6.20
2007,10,28,06,00,6.20
2007,10,28,06,01,6.20
2007,10,28,06,02,6.20
2007,10,28,06,03,6.20
2007,10,28,06,04,6.20
2007,10,28,06,05,6.20
2007,10,28,06,06,6.20
2007,10,28,06,07,6.20
2007,10,28,06,08,6.20
2007,10,28,06,09,6.20
2007,10,28,06,10,6.20
2007,10,28,06,11,6.20
2007,10,28,06,12,6.20
2007,10,28,06,13,6.20
2007,10,28,06,14,6.20
2007,10,28,06,15,6.20
2007,10,28,06,16,6.20
2007,10,28,06,17,6.20
2007,10,28,06,18,6.20
2007,10,28,06,19,6.20
2007,10,28,06,20,6.20
2007,10,28,06,21,6.20
2007,10,28,06,22,6.20
2007,10,28,06,23,6.30
2007,10,28,06,24,6.30
2007,10,28,06,25,6.30
2007,10,28,06,26,6.30
2007,10,28,06,27,6.30
2007,10,28,06,28,6.30
2007,10,28,06,29,6.30
2007,10,28,06,30,6.30
2007,10,28,06,31,6.40
2007,10,28,06,32,6.40
2007,10,28,06,33,6.40
2007,10,28,06,34,6.40
2007,10,28,06,35,6.40
2007,10,28,06,36,6.40
2007,10,28,06,37,6.40
2007,10,28,06,38,6.40
2007,10,28,06,39,6.40
2007,10,28,06,40,6.40
2007,10,28,06,41,6.40
2007,10,28,06,42,6.40
2007,10,28,06,43,6.40
2007,10,28,06,44,6.40
2007,10,28,06,45,6.30
2007,10,28,06,46,6.30
2007,10,28,06,47,6.30
2007,10,28,06,48,6.30
2007,10,28,06,49,6.30
2007,10,28,06,50,6.30
2007,10,28,06,51,6.30
2007,10,28,06,52,6.30
2007,10,28,06,53,6.30
2007,10,28,06,54,6.30
2007,10,28,06,55,6.30
2007,10,28,06,56,6.30
2007,10,28,06,57,6.30
2007,10,28,06,58,6.30
2007,10,28,06,59,6.30
2007,10,28,07,00,6.30
2007,10,28,07,01,6.30
2007,10,28,07,02,6.30
2007,10,28,07,03,6.30
2007,10,28,07,04,6.30
2007,10,28,07,05,6.40
2007,10,28,07,06,6.40
2007,10,28,07,07,6.40
2007,10,28,07,08,6.40
2007,10,28,07,09,6.40
2007,10,28,07,10,6.40
2007,10,28,07,11,6.40
2007,10,28,07,12,6.50
2007,10,28,07,13,6.50
2007,10,28,07,14,6.50
2007,10,28,07,15,6.50
2007,10,28,07,16,6.50
2007,10,28,07,17,6.50
2007,10,28,07,18,6.60
2007,10,28,07,19,6.60
2007,10,28,07,20,6.60
2007,10,28,07,21,6.60
2007,10,28,07,22,6.60
2007,10,28,07,23,6.60
2007,10,28,07,24,6.60
2007,10,28,07,25,6.60
2007,10,28,07,26,6.60
2007,10,28,07,27,6.60
2007,10,28,07,28,6.60
2007,10,28,07,29,6.60
2007,10,28,07,30,6.60
2007,10,28,07,31,6.60
2007,10,28,07,32,6.60
2007,10,28,07,33,6.60
2007,10,28,07,34,6.60
2007,10,28,07,35,6.60
2007,10,28,07,36,6.60
2007,10,28,07,37,6.60
2007,10,28,07,38,6.60
2007,10,28,07,39,6.60
2007,10,28,07,40,6.60
2007,10,28,07,41,6.60
2007,10,28,07,42,6.60
2007,10,28,07,43,6.60
2007,10,28,07,44,6.60
2007,10,28,07,45,6.60
2007,10,28,07,46,6.60
2007,10,28,07,47,6.60
2007,10,28,07,48,6.70
2007,10,28,07,49,6.70
2007,10,28,07,50,6.70
2007,10,28,07,51,6.70
2007,10,28,07,52,6.70
2007,10,28,07,53,6.70
2007,10,28,07,54,6.70
2007,10,28,07,55,6.70
2007,10,28,07,56,6.70
2007,10,28,07,57,6.70
2007,10,28,07,58,6.70
2007,10,28,07,59,6.70
2007,10,28,08,00,6.70
2007,10,28,08,01,6.70
2007,10,28,08,02,6.70
2007,10,28,08,03,6.70
2007,10,28,08,04,6.70
2007,10,28,08,05,6.70
2007,10,28,08,06,6.70
2007,10,28,08,07,6.70
2007,10,28,08,08,6.70
2007,10,28,08,09,6.70
2007,10,28,08,10,6.70
2007,10,28,08,11,6.70
2007,10,28,08,12,6.70
2007,10,28,08,13,6.70
2007,10,28,08,14,6.70
2007,10,28,08,15,6.70
2007,10,28,08,16,6.70
2007,10,28,08,17,6.70
2007,10,28,08,18,6.70
2007,10,28,08,19,6.70
2007,10,28,08,20,6.70
2007,10,28,08,21,6.70
2007,10,28,08,22,6.70
2007,10,28,08,23,6.70
2007,10,28,08,24,6.70
2007,10,28,08,25,6.70
2007,10,28,08,26,6.70
2007,10,28,08,27,6.80
2007,10,28,08,28,6.80
2007,10,28,08,29,6.80
2007,10,28,08,30,6.80
2007,10,28,08,31,6.80
2007,10,28,08,32,6.80
2007,10,28,08,33,6.90
2007,10,28,08,34,6.90
2007,10,28,08,35,6.90
2007,10,28,08,36,6.90
2007,10,28,08,37,6.90
2007,10,28,08,38,7.00
2007,10,28,08,39,7.00
2007,10,28,08,40,7.00
2007,10,28,08,41,7.10
2007,10,28,08,42,7.10
2007,10,28,08,43,7.10
2007,10,28,08,44,7.10
2007,10,28,08,45,7.10
2007,10,28,08,46,7.20
2007,10,28,08,47,7.20
2007,10,28,08,48,7.20
2007,10,28,08,49,7.20
2007,10,28,08,50,7.20
2007,10,28,08,51,7.20
2007,10,28,08,52,7.20
2007,10,28,08,53,7.30
2007,10,28,08,54,7.30
2007,10,28,08,55,7.30
2007,10,28,08,56,7.30
2007,10,28,08,57,7.30
2007,10,28,08,58,7.30
2007,10,28,08,59,7.30
2007,10,28,09,00,7.30
2007,10,28,09,01,7.30
2007,10,28,09,02,7.30
2007,10,28,09,03,7.30
2007,10,28,09,04,7.30
2007,10,28,09,05,7.30
2007,10,28,09,06,7.30
2007,10,28,09,07,7.30
2007,10,28,09,08,7.40
2007,10,28,09,09,7.40
2007,10,28,09,10,7.40
2007,10,28,09,11,7.40
2007,10,28,09,12,7.40
2007,10,28,09,13,7.40
2007,10,28,09,14,7.40
2007,10,28,09,15,7.50
2007,10,28,09,16,7.50
2007,10,28,09,17,7.50
2007,10,28,09,18,7.50
2007,10,28,09,19,7.60
2007,10,28,09,20,7.60
2007,10,28,09,21,7.60
2007,10,28,09,22,7.60
2007,10,28,09,23,7.60
2007,10,28,09,24,7.60
2007,10,28,09,25,7.70
2007,10,28,09,26,7.70
2007,10,28,09,27,7.70
2007,10,28,09,28,7.70
2007,10,28,09,29,7.70
2007,10,28,09,30,7.70
2007,10,28,09,31,7.80
2007,10,28,09,32,7.80
2007,10,28,09,33,7.80
2007,10,28,09,34,7.80
2007,10,28,09,35,7.80
2007,10,28,09,36,7.80
2007,10,28,09,37,7.90
2007,10,28,09,38,7.90
2007,10,28,09,39,7.90
2007,10,28,09,40,7.90
2007,10,28,09,41,7.90
2007,10,28,09,42,7.90
2007,10,28,09,43,7.90
2007,10,28,09,44,8.00
2007,10,28,09,45,8.00
2007,10,28,09,46,8.00
2007,10,28,09,47,8.00
2007,10,28,09,48,8.10
2007,10,28,09,49,8.10
2007,10,28,09,50,8.10
2007,10,28,09,51,8.10
2007,10,28,09,52,8.10
2007,10,28,09,53,8.20
2007,10,28,09,54,8.20
2007,10,28,09,55,8.20
2007,10,28,09,56,8.20
2007,10,28,09,57,8.30
2007,10,28,09,58,8.30
2007,10,28,09,59,8.30
2007,10,28,10,00,8.30
2007,10,28,10,01,8.40
2007,10,28,10,02,8.40
2007,10,28,10,03,8.40
2007,10,28,10,04,8.50
2007,10,28,10,05,8.50
2007,10,28,10,06,8.60
2007,10,28,10,07,8.60
2007,10,28,10,08,8.70
2007,10,28,10,09,8.70
2007,10,28,10,10,8.70
2007,10,28,10,11,8.80
2007,10,28,10,12,8.80
2007,10,28,10,13,8.80
2007,10,28,10,14,8.90
2007,10,28,10,15,8.90
2007,10,28,10,16,8.90
2007,10,28,10,17,8.90
2007,10,28,10,18,9.00
2007,10,28,10,19,9.00
2007,10,28,10,20,9.10
2007,10,28,10,21,9.10
2007,10,28,10,22,9.10
2007,10,28,10,23,9.10
2007,10,28,10,24,9.10
2007,10,28,10,25,9.10
2007,10,28,10,26,9.20
2007,10,28,10,27,9.20
2007,10,28,10,28,9.20
2007,10,28,10,29,9.20
2007,10,28,10,30,9.20
2007,10,28,10,31,9.20
2007,10,28,10,32,9.20
2007,10,28,10,33,9.30
2007,10,28,10,34,9.30
2007,10,28,10,35,9.30
2007,10,28,10,36,9.30
2007,10,28,10,37,9.30
2007,10,28,10,38,9.30
2007,10,28,10,39,9.30
2007,10,28,10,40,9.30
2007,10,28,10,41,9.40
2007,10,28,10,42,9.40
2007,10,28,10,43,9.40
2007,10,28,10,44,9.40
2007,10,28,10,45,9.40
2007,10,28,10,46,9.40
2007,10,28,10,47,9.50
2007,10,28,10,48,9.50
2007,10,28,10,49,9.60
2007,10,28,10,50,9.60
2007,10,28,10,51,9.60
2007,10,28,10,52,9.60
2007,10,28,10,53,9.70
2007,10,28,10,54,9.70
2007,10,28,10,55,9.70
2007,10,28,10,56,9.70
2007,10,28,10,57,9.70
2007,10,28,10,58,9.70
2007,10,28,10,59,9.70
2007,10,28,11,00,9.70
2007,10,28,11,01,9.80
2007,10,28,11,02,9.80
2007,10,28,11,03,9.80
2007,10,28,11,04,9.80
2007,10,28,11,05,9.90
2007,10,28,11,06,9.90
2007,10,28,11,07,9.90
2007,10,28,11,08,9.90
2007,10,28,11,09,9.90
2007,10,28,11,10,9.90
2007,10,28,11,11,10.00
2007,10,28,11,12,10.00
2007,10,28,11,13,10.00
2007,10,28,11,14,10.00
2007,10,28,11,15,10.00
2007,10,28,11,16,10.10
2007,10,28,11,17,10.10
2007,10,28,11,18,10.10
2007,10,28,11,19,10.10
2007,10,28,11,20,10.10
2007,10,28,11,21,10.00
2007,10,28,11,22,10.00
2007,10,28,11,23,9.90
2007,10,28,11,24,9.90
2007,10,28,11,25,9.80
2007,10,28,11,26,9.80
2007,10,28,11,27,9.80
2007,10,28,11,28,9.80
2007,10,28,11,29,9.80
2007,10,28,11,30,9.80
2007,10,28,11,31,9.70
2007,10,28,11,32,9.70
2007,10,28,11,33,9.70
2007,10,28,11,34,9.70
2007,10,28,11,35,9.70
2007,10,28,11,36,9.70
2007,10,28,11,37,9.70
2007,10,28,11,38,9.80
2007,10,28,11,39,9.80
2007,10,28,11,40,9.80
2007,10,28,11,41,9.80
2007,10,28,11,42,9.80
2007,10,28,11,43,9.80
2007,10,28,11,44,9.70
2007,10,28,11,45,9.70
2007,10,28,11,46,9.70
2007,10,28,11,47,9.70
2007,10,28,11,48,9.70
2007,10,28,11,49,9.70
2007,10,28,11,50,9.70
2007,10,28,11,51,9.70
2007,10,28,11,52,9.70
2007,10,28,11,53,9.70
2007,10,28,11,54,9.70
2007,10,28,11,55,9.70
2007,10,28,11,56,9.70
2007,10,28,11,57,9.70
2007,10,28,11,58,9.70
2007,10,28,11,59,9.70
2007,10,28,12,00,9.70
2007,10,28,12,01,9.70
2007,10,28,12,02,9.70
2007,10,28,12,03,9.70
2007,10,28,12,04,9.60
2007,10,28,12,05,9.60
2007,10,28,12,06,9.60
2007,10,28,12,07,9.60
2007,10,28,12,08,9.60
2007,10,28,12,09,9.60
2007,10,28,12,10,9.60
2007,10,28,12,11,9.60
2007,10,28,12,12,9.50
2007,10,28,12,13,9.50
2007,10,28,12,14,9.40
2007,10,28,12,15,9.40
2007,10,28,12,16,9.30
2007,10,28,12,17,9.30
2007,10,28,12,18,9.30
2007,10,28,12,19,9.30
2007,10,28,12,20,9.20
2007,10,28,12,21,9.20
2007,10,28,12,22,9.20
2007,10,28,12,23,9.10
2007,10,28,12,24,9.10
2007,10,28,12,25,9.10
2007,10,28,12,26,9.10
2007,10,28,12,27,9.10
2007,10,28,12,28,9.10
2007,10,28,12,29,9.20
2007,10,28,12,30,9.20
2007,10,28,12,31,9.20
2007,10,28,12,32,9.20
2007,10,28,12,33,9.30
2007,10,28,12,34,9.30
2007,10,28,12,35,9.30
2007,10,28,12,36,9.30
2007,10,28,12,37,9.30
2007,10,28,12,38,9.40
2007,10,28,12,39,9.40
2007,10,28,12,40,9.40
2007,10,28,12,41,9.50
2007,10,28,12,42,9.50
2007,10,28,12,43,9.50
2007,10,28,12,44,9.50
2007,10,28,12,45,9.60
2007,10,28,12,46,9.60
2007,10,28,12,47,9.60
2007,10,28,12,48,9.50
2007,10,28,12,49,9.50
2007,10,28,12,50,9.50
2007,10,28,12,51,9.50
2007,10,28,12,52,9.50
2007,10,28,12,53,9.50
2007,10,28,12,54,9.50
2007,10,28,12,55,9.50
2007,10,28,12,56,9.50
2007,10,28,12,57,9.40
2007,10,28,12,58,9.40
2007,10,28,12,59,9.40
2007,10,28,13,00,9.40
2007,10,28,13,01,9.30
2007,10,28,13,02,9.30
2007,10,28,13,03,9.30
2007,10,28,13,04,9.30
2007,10,28,13,05,9.40
2007,10,28,13,06,9.40
2007,10,28,13,07,9.30
2007,10,28,13,08,9.30
2007,10,28,13,09,9.30
2007,10,28,13,10,9.30
2007,10,28,13,11,9.30
2007,10,28,13,12,9.30
2007,10,28,13,13,9.30
2007,10,28,13,14,9.30
2007,10,28,13,15,9.30
2007,10,28,13,16,9.30
2007,10,28,13,17,9.30
2007,10,28,13,18,9.30
2007,10,28,13,19,9.40
2007,10,28,13,20,9.40
2007,10,28,13,21,9.40
2007,10,28,13,22,9.40
2007,10,28,13,23,9.50
2007,10,28,13,24,9.50
2007,10,28,13,25,9.60
2007,10,28,13,26,9.60
2007,10,28,13,27,9.60
2007,10,28,13,28,9.60
2007,10,28,13,29,9.60
2007,10,28,13,30,9.60
2007,10,28,13,31,9.70
2007,10,28,13,32,9.70
2007,10,28,13,33,9.70
2007,10,28,13,34,9.70
2007,10,28,13,35,9.80
2007,10,28,13,36,9.80
2007,10,28,13,37,9.80
2007,10,28,13,38,9.90
2007,10,28,13,39,9.90
2007,10,28,13,40,9.90
2007,10,28,13,41,9.90
2007,10,28,13,42,9.90
2007,10,28,13,43,9.90
2007,10,28,13,44,9.90
2007,10,28,13,45,9.90
2007,10,28,13,46,9.90
2007,10,28,13,47,9.90
2007,10,28,13,48,9.90
2007,10,28,13,49,9.90
2007,10,28,13,50,9.90
2007,10,28,13,51,9.80
2007,10,28,13,52,9.80
2007,10,28,13,53,9.80
2007,10,28,13,54,9.80
2007,10,28,13,55,9.70
2007,10,28,13,56,9.70
2007,10,28,13,57,9.70
2007,10,28,13,58,9.60
2007,10,28,13,59,9.60
2007,10,28,14,00,9.60
2007,10,28,14,01,9.50
2007,10,28,14,02,9.40
2007,10,28,14,03,9.40
2007,10,28,14,04,9.40
2007,10,28,14,05,9.40
2007,10,28,14,06,9.40
2007,10,28,14,07,9.40
2007,10,28,14,08,9.50
2007,10,28,14,09,9.40
2007,10,28,14,10,9.40
2007,10,28,14,11,9.40
2007,10,28,14,12,9.40
2007,10,28,14,13,9.40
2007,10,28,14,14,9.40
2007,10,28,14,15,9.40
2007,10,28,14,16,9.40
2007,10,28,14,17,9.40
2007,10,28,14,18,9.40
2007,10,28,14,19,9.40
2007,10,28,14,20,9.40
2007,10,28,14,21,9.50
2007,10,28,14,22,9.50
2007,10,28,14,23,9.50
2007,10,28,14,24,9.50
2007,10,28,14,25,9.50
2007,10,28,14,26,9.50
2007,10,28,14,27,9.50
2007,10,28,14,28,9.60
2007,10,28,14,29,9.50
2007,10,28,14,30,9.50
2007,10,28,14,31,9.60
2007,10,28,14,32,9.50
2007,10,28,14,33,9.50
2007,10,28,14,34,9.50
2007,10,28,14,35,9.50
2007,10,28,14,36,9.50
2007,10,28,14,37,9.50
2007,10,28,14,38,9.50
2007,10,28,14,39,9.50
2007,10,28,14,40,9.40
2007,10,28,14,41,9.40
2007,10,28,14,42,9.40
2007,10,28,14,43,9.40
2007,10,28,14,44,9.40
2007,10,28,14,45,9.40
2007,10,28,14,46,9.40
2007,10,28,14,47,9.40
2007,10,28,14,48,9.40
2007,10,28,14,49,9.40
2007,10,28,14,50,9.40
2007,10,28,14,51,9.40
2007,10,28,14,52,9.40
2007,10,28,14,53,9.40
2007,10,28,14,54,9.30
2007,10,28,14,55,9.30
2007,10,28,14,56,9.40
2007,10,28,14,57,9.40
2007,10,28,14,58,9.40
2007,10,28,14,59,9.50
2007,10,28,15,00,9.50
2007,10,28,15,01,9.50
2007,10,28,15,02,9.50
2007,10,28,15,03,9.50
2007,10,28,15,04,9.50
2007,10,28,15,05,9.60
2007,10,28,15,06,9.60
2007,10,28,15,07,9.60
2007,10,28,15,08,9.70
2007,10,28,15,09,9.70
2007,10,28,15,10,9.80
2007,10,28,15,11,9.80
2007,10,28,15,12,9.80
2007,10,28,15,13,9.80
2007,10,28,15,14,9.80
2007,10,28,15,15,9.80
2007,10,28,15,16,9.80
2007,10,28,15,17,9.80
2007,10,28,15,18,9.80
2007,10,28,15,19,9.80
2007,10,28,15,20,9.90
2007,10,28,15,21,9.90
2007,10,28,15,22,9.90
2007,10,28,15,23,9.90
2007,10,28,15,24,10.00
2007,10,28,15,25,10.00
2007,10,28,15,26,10.00
2007,10,28,15,27,10.00
2007,10,28,15,28,10.10
2007,10,28,15,29,10.10
2007,10,28,15,30,10.10
2007,10,28,15,31,10.20
2007,10,28,15,32,10.20
2007,10,28,15,33,10.20
2007,10,28,15,34,10.20
2007,10,28,15,35,10.20
2007,10,28,15,36,10.20
2007,10,28,15,37,10.20
2007,10,28,15,38,10.10
2007,10,28,15,39,10.10
2007,10,28,15,40,10.10
2007,10,28,15,41,10.00
2007,10,28,15,42,10.00
2007,10,28,15,43,10.00
2007,10,28,15,44,10.00
2007,10,28,15,45,10.00
2007,10,28,15,46,10.10
2007,10,28,15,47,10.10
2007,10,28,15,48,10.10
2007,10,28,15,49,10.10
2007,10,28,15,50,10.10
2007,10,28,15,51,10.10
2007,10,28,15,52,10.10
2007,10,28,15,53,10.10
2007,10,28,15,54,10.10
2007,10,28,15,55,10.20
2007,10,28,15,56,10.20
2007,10,28,15,57,10.20
2007,10,28,15,58,10.20
2007,10,28,15,59,10.20
2007,10,28,16,00,10.20
2007,10,28,16,01,10.20
2007,10,28,16,02,10.20
2007,10,28,16,03,10.20
2007,10,28,16,04,10.20
2007,10,28,16,05,10.20
2007,10,28,16,06,10.20
2007,10,28,16,07,10.10
2007,10,28,16,08,10.10
2007,10,28,16,09,10.10
2007,10,28,16,10,10.10
2007,10,28,16,11,10.10
2007,10,28,16,12,10.10
2007,10,28,16,13,10.10
2007,10,28,16,14,10.10
2007,10,28,16,15,10.10
2007,10,28,16,16,10.10
2007,10,28,16,17,10.10
2007,10,28,16,18,10.10
2007,10,28,16,19,10.10
2007,10,28,16,20,10.10
2007,10,28,16,21,10.10
2007,10,28,16,22,10.10
2007,10,28,16,23,10.10
2007,10,28,16,24,10.10
2007,10,28,16,25,10.10
2007,10,28,16,26,10.10
2007,10,28,16,27,10.20
2007,10,28,16,28,10.20
2007,10,28,16,29,10.20
2007,10,28,16,30,10.20
2007,10,28,16,31,10.20
2007,10,28,16,32,10.20
2007,10,28,16,33,10.20
2007,10,28,16,34,10.20
2007,10,28,16,35,10.30
2007,10,28,16,36,10.30
2007,10,28,16,37,10.30
2007,10,28,16,38,10.30
2007,10,28,16,39,10.30
2007,10,28,16,40,10.30
2007,10,28,16,41,10.30
2007,10,28,16,42,10.30
2007,10,28,16,43,10.30
2007,10,28,16,44,10.30
2007,10,28,16,45,10.30
2007,10,28,16,46,10.30
2007,10,28,16,47,10.20
2007,10,28,16,48,10.20
2007,10,28,16,49,10.20
2007,10,28,16,50,10.20
2007,10,28,16,51,10.20
2007,10,28,16,52,10.20
2007,10,28,16,53,10.20
2007,10,28,16,54,10.20
2007,10,28,16,55,10.20
2007,10,28,16,56,10.20
2007,10,28,16,57,10.20
2007,10,28,16,58,10.20
2007,10,28,16,59,10.20
2007,10,28,17,00,10.20
2007,10,28,17,01,10.20
2007,10,28,17,02,10.20
2007,10,28,17,03,10.20
2007,10,28,17,04,10.20
2007,10,28,17,05,10.20
2007,10,28,17,06,10.20
2007,10,28,17,07,10.20
2007,10,28,17,08,10.20
2007,10,28,17,09,10.20
2007,10,28,17,10,10.20
2007,10,28,17,11,10.20
2007,10,28,17,12,10.20
2007,10,28,17,13,10.20
2007,10,28,17,14,10.20
2007,10,28,17,15,10.20
2007,10,28,17,16,10.20
2007,10,28,17,17,10.20
2007,10,28,17,18,10.20
2007,10,28,17,19,10.20
2007,10,28,17,20,10.20
2007,10,28,17,21,10.20
2007,10,28,17,22,10.20
2007,10,28,17,23,10.20
2007,10,28,17,24,10.20
2007,10,28,17,25,10.20
2007,10,28,17,26,10.20
2007,10,28,17,27,10.20
2007,10,28,17,28,10.10
2007,10,28,17,29,10.10
2007,10,28,17,30,10.10
2007,10,28,17,31,10.10
2007,10,28,17,32,10.10
2007,10,28,17,33,10.10
2007,10,28,17,34,10.10
2007,10,28,17,35,10.10
2007,10,28,17,36,10.10
2007,10,28,17,37,10.10
2007,10,28,17,38,10.10
2007,10,28,17,39,10.10
2007,10,28,17,40,10.10
2007,10,28,17,41,10.10
2007,10,28,17,42,10.10
2007,10,28,17,43,10.10
2007,10,28,17,44,10.10
2007,10,28,17,45,10.10
2007,10,28,17,46,10.00
2007,10,28,17,47,10.00
2007,10,28,17,48,10.00
2007,10,28,17,49,10.00
2007,10,28,17,50,9.90
2007,10,28,17,51,9.90
2007,10,28,17,52,9.90
2007,10,28,17,53,9.90
2007,10,28,17,54,9.90
2007,10,28,17,55,9.90
2007,10,28,17,56,9.90
2007,10,28,17,57,9.80
2007,10,28,17,58,9.80
2007,10,28,17,59,9.80
2007,10,28,18,00,9.80
2007,10,28,18,01,9.80
2007,10,28,18,02,9.80
2007,10,28,18,03,9.80
2007,10,28,18,04,9.80
2007,10,28,18,05,9.80
2007,10,28,18,06,9.80
2007,10,28,18,07,9.80
2007,10,28,18,08,9.80
2007,10,28,18,09,9.70
2007,10,28,18,10,9.70
2007,10,28,18,11,9.70
2007,10,28,18,12,9.70
2007,10,28,18,13,9.70
2007,10,28,18,14,9.70
2007,10,28,18,15,9.60
2007,10,28,18,16,9.60
2007,10,28,18,17,9.60
2007,10,28,18,18,9.60
2007,10,28,18,19,9.60
2007,10,28,18,20,9.60
2007,10,28,18,21,9.60
2007,10,28,18,22,9.60
2007,10,28,18,23,9.60
2007,10,28,18,24,9.60
2007,10,28,18,25,9.60
2007,10,28,18,26,9.60
2007,10,28,18,27,9.60
2007,10,28,18,28,9.60
2007,10,28,18,29,9.50
2007,10,28,18,30,9.50
2007,10,28,18,31,9.50
2007,10,28,18,32,9.50
2007,10,28,18,33,9.50
2007,10,28,18,34,9.50
2007,10,28,18,35,9.50
2007,10,28,18,36,9.50
2007,10,28,18,37,9.40
2007,10,28,18,38,9.40
2007,10,28,18,39,9.40
2007,10,28,18,40,9.40
2007,10,28,18,41,9.40
2007,10,28,18,42,9.40
2007,10,28,18,43,9.40
2007,10,28,18,44,9.40
2007,10,28,18,45,9.40
2007,10,28,18,46,9.40
2007,10,28,18,47,9.40
2007,10,28,18,48,9.30
2007,10,28,18,49,9.30
2007,10,28,18,50,9.30
2007,10,28,18,51,9.30
2007,10,28,18,52,9.30
2007,10,28,18,53,9.30
2007,10,28,18,54,9.30
2007,10,28,18,55,9.30
2007,10,28,18,56,9.30
2007,10,28,18,57,9.30
2007,10,28,18,58,9.30
2007,10,28,18,59,9.30
2007,10,28,19,00,9.30
2007,10,28,19,01,9.30